Notices

What's New in latest Release from April 7th, 2021:

- Updated Glossary, including Speed of Maximum Gust, and Total Hourly Precipitation

- Updated national and regional climate services offices contacts and prices information

- Addition of station inventory lists for 1981-2010, 1971-2000, and 1961-1990 Normals.

If you haven't already, please take our survey and provide feedback about our website: https://eccc.sondage-survey.ca/f/LanguageSelection.aspx?s=442ca660-fcf1-47c0-95a9-59707d6fd709

Hourly Data Report for April 22, 2017

MIRAMICHI RCS
NEW BRUNSWICK

47°00'34.000" N
65°27'54.000" W
33.00 m
8100989
71744
ACQ

Download Data

Hourly Data (April 2017)
Hourly Data Report for April 22, 2017
TIME
LST
Temp Definition
°C
Dew Point Definition
°C
Rel Hum Definition
%
Precip. Amount Definition
mm

Wind Dir Definition
10's deg

Wind Spd Definition
km/h
Visibility Definition
km
Stn Press Definition
kPa
Hmdx Definition


Wind Chill Definition


Weather Definition


00:00 -0.2 -2.3 86 0.0 6 11   101.93   -4 LegendNANA
01:00 -0.3 -1.8 89 0.0 10 4   101.90   -2 LegendNANA
02:00 -0.3 -1.7 90 0.0 5 3   101.79   -1 LegendNANA
03:00 -0.3 -1.8 90 0.0   0   101.78     LegendNANA
04:00 -0.4 -1.7 91 0.0 9 6   101.73   -2 LegendNANA
05:00 -0.5 -1.7 91 0.0 0 1   101.74   -1 LegendNANA
06:00 -0.3 -1.7 90 0.0 5 5   101.69   -2 LegendNANA
07:00 -0.3 -1.4 92 0.2   0   101.74     LegendNANA
08:00 -0.1 -1.6 90 0.3 8 9   101.68   -3 LegendNANA
09:00 0.3 -1.2 90 0.0 8 12   101.68     LegendNANA
10:00 0.9 -0.7 89 0.0 9 12   101.66     LegendNANA
11:00 0.9 -0.6 90 0.0 9 12   101.59     LegendNANA
12:00 1.7 0.1 89 0.0 6 6   101.52     LegendNANA
13:00 2.5 -0.7 80 0.0 9 13   101.45     LegendNANA
14:00 2.6 -0.2 81 0.0 4 8   101.42     LegendNANA
15:00 3.0 -0.8 76 0.0 5 7   101.37     LegendNANA
16:00 2.9 -3.9 61 0.0 4 8   101.32     LegendNANA
17:00 1.3 -2.6 75 0.2 6 12   101.31     LegendNANA
18:00 -0.1 -1.0 94 0.9 4 9   101.31   -3 LegendNANA
19:00 -0.4 -1.0 96 0.5 7 9   101.28   -4 LegendNANA
20:00 -0.4 -1.0 96 0.2 6 10   101.27   -4 LegendNANA
21:00 -0.4 -1.0 96 0.5 5 6   101.28   -2 LegendNANA
22:00 -0.6 -1.2 96 0.4 7 7   101.23   -3 LegendNANA
23:00 -0.9 -1.5 96 0.3 3 6   101.16   -3 LegendNANA

Notes on Data Quality.

Legend

  • E = Estimated
  • M = Missing
  • NA = Not Available*
  • [empty] = Indicates an unobserved value
Date modified: